[[{"header":{"parameterUnit":"m.s-1","parameterCategory":1,"la1":30.2991,"la2":30.254,"lo1":-89.0895,"lo2":-89.0444,"dy":0.0017,"dx":0.0017,"nx":28,"ny":28,"refTime":"2024-12-13T09:00:00:Z","depth":0,"parameterNumber":2,"parameterNumberName":"U-component_of_WINDS"},"data":[0,0,0,0,0,0,0,0,0,0,0,0,0,0,0,0,0,0,0,0,0,0,0,0,0,0,0,0,0,0,0,0,0,0,0,0,0,0,0,0,0,0,0,0,0,0,0,0,0,0,0,0,0,0,0,0,0,0,-6.1651,-6.1652,0,-6.17,-6.17,-6.1701,-6.1636,-6.1634,-6.1631,-6.1629,-6.1678,-6.1682,-6.1685,0,0,0,0,0,0,0,0,0,0,0,0,0,-6.1504,-6.1507,-6.1651,-6.1652,-6.1652,-6.17,-6.17,-6.1701,-6.1636,-6.1633,-6.1631,-6.1628,-6.1677,-6.1681,-6.1686,0,0,0,0,0,0,0,0,0,0,0,0,0,-6.1562,-6.1508,-6.1651,-6.1626,-6.1624,-6.1699,-6.17,-6.1701,-6.1637,-6.1633,-6.163,-6.1627,-6.1676,-6.1681,-6.1686,-6.1789,0,0,-6.1702,-6.1704,0,0,0,0,0,0,0,0,-6.1559,-6.1567,-6.1629,-6.1628,-6.1626,-6.1658,-6.1666,-6.173,-6.1638,-6.1632,-6.1629,-6.1625,-6.1675,-6.168,-6.1696,-6.1791,-6.1793,-6.1703,-6.1706,-6.1708,-6.171,0,0,0,0,0,0,0,-6.1555,-6.1565,-6.167,-6.163,-6.1628,-6.1613,-6.1617,-6.1678,-6.1672,-6.1632,-6.1628,-6.1634,-6.1673,-6.1692,-6.1697,-6.1794,-6.1702,-6.1707,-6.171,-6.1712,-6.1977,-6.198,0,0,0,0,0,0,-6.1554,-6.1562,-6.1669,-6.1672,-6.1583,-6.1618,-6.1623,-6.1651,-6.1671,-6.1671,-6.1637,-6.1631,-6.1684,-6.1691,-6.1699,-6.182,-6.1708,-6.1713,-6.1716,-6.1973,-6.1977,-6.1982,0,0,0,0,0,0,-6.1551,-6.1564,-6.1667,-6.1616,-6.1628,-6.1624,-6.1657,-6.1654,-6.1672,-6.1675,-6.1674,-6.1657,-6.1682,-6.1691,-6.1767,-6.1821,-6.1715,-6.172,-6.1968,-6.1974,-6.1979,-6.2064,0,0,0,0,0,0,-6.1547,-6.1563,-6.1601,-6.1617,-6.1631,-6.1734,-6.166,-6.1658,-6.1682,-6.1674,-6.1694,-6.1693,-6.168,-6.176,-6.1772,-6.1826,-6.1724,-6.1963,-6.1971,-6.1978,-6.2057,-6.2072,-6.2086,0,0,0,0,0,-6.1542,-6.1623,-6.1604,-6.1617,-6.1678,-6.1737,-6.1745,-6.1728,-6.1686,-6.1725,-6.1727,-6.1693,-6.1814,-6.1768,-6.1782,-6.1838,-6.196,-6.1969,-6.1977,-6.205,-6.2069,-6.2085,0,0,0,0,0,0,-6.1613,-6.1624,-6.1603,-6.1692,-6.1714,-6.1726,-6.1774,-6.1748,-6.1783,-6.1774,-6.1752,-6.1757,-6.1838,-6.1846,-6.1795,-6.1939,-6.188,-6.1892,-6.1931,-6.1949,-6.1963,-6.1959,-6.1728,0,0,0,0,0,-6.1639,-6.1686,-6.1693,-6.1771,-6.1783,-6.1778,-6.1802,-6.1788,-6.181,-6.1819,-6.1826,-6.1849,-6.1893,-6.1921,-6.1961,-6.2058,-6.2062,-6.2104,-6.2119,-6.2131,-6.2141,-6.2194,-6.2213,-6.201,-6.201,-6.201,0,0,-6.1693,-6.1705,-6.1736,-6.1786,-6.1801,-6.1851,-6.1786,-6.184,-6.1877,-6.1827,-6.1899,-6.1906,-6.193,-6.2018,-6.2056,-6.2027,-6.2198,-6.2142,-6.2151,-6.2155,-6.2205,-6.2224,-6.2241,-6.2016,-6.2015,-6.2014,0,0,-6.1816,-6.183,-6.1897,-6.1914,-6.1939,-6.1935,-6.1952,-6.1969,-6.1971,-6.2044,-6.2008,-6.2052,-6.2126,-6.2146,-6.2165,-6.23,-6.2269,-6.2314,-6.2389,-6.2441,-6.2457,-6.2471,-6.2519,-6.2536,-6.2324,-6.2324,-6.2324,0,-6.188,-6.1952,-6.1934,-6.1992,-6.2015,-6.1974,-6.2042,-6.206,-6.2097,-6.2114,-6.2081,-6.2175,-6.2188,-6.228,-6.2313,-6.2331,-6.2349,-6.231,-6.2456,-6.247,-6.2483,-6.2528,-6.2546,-6.2329,-6.2329,-6.2328,-6.2328,0,-6.203,-6.2081,-6.2132,-6.2169,-6.2199,-6.2261,-6.2253,-6.2285,-6.2269,-6.2269,-6.2344,-6.236,-6.2402,-6.2424,-6.2408,-6.2514,-6.2495,-6.2459,-6.2399,-6.2507,-6.255,-6.2567,-6.2337,-6.2335,-6.2333,-6.2332,0,0,-6.2196,-6.2225,-6.2243,-6.2261,-6.2287,-6.2326,-6.2388,-6.2431,-6.2459,-6.2487,-6.2538,-6.2604,-6.2572,-6.2594,-6.2581,-6.2627,-6.2733,-6.2586,-6.2586,-6.2612,-6.2851,-6.2877,-6.2897,-6.2714,-6.2717,-6.272,-6.2849,0,-6.2319,-6.2425,-6.2412,-6.2513,-6.2561,-6.2525,-6.2578,-6.2601,-6.2604,-6.2645,-6.2648,-6.2695,-6.2649,-6.2662,-6.2706,-6.2711,-6.2781,-6.2701,-6.2761,-6.2764,-6.2755,-6.292,-6.2946,-6.3067,-6.2866,-6.2869,-6.2871,0,-6.2475,-6.251,-6.2617,-6.2637,-6.2657,-6.2705,-6.2744,-6.2785,-6.281,-6.2809,-6.2836,-6.2815,-6.2878,-6.2818,-6.2905,-6.2851,-6.2876,-6.2882,-6.2886,-6.289,-6.2822,-6.2927,-6.3105,-6.3123,-6.2897,-6.2894,-6.2893,0,-6.2585,-6.2659,-6.2732,-6.2748,-6.2774,-6.281,-6.2822,-6.2844,-6.2872,-6.2906,-6.2924,-6.2966,-6.2988,-6.3021,-6.3013,-6.297,-6.3102,-6.3041,-6.3102,-6.3103,-6.313,-6.3128,-6.3314,-6.3148,-6.3148,-6.3148,-6.3147,0,-6.2723,-6.279,-6.2782,-6.2827,-6.2902,-6.2887,-6.2961,-6.2969,-6.299,-6.3037,-6.3008,-6.3053,-6.304,-6.3084,-6.3078,-6.3151,-6.3162,-6.3163,-6.316,-6.3164,-6.3164,-6.3178,-6.3169,-6.3152,-6.3151,-6.315,-6.315,0,-6.2857,-6.2855,-6.2933,-6.2952,-6.2959,-6.3013,-6.3029,-6.3072,-6.3074,-6.3134,-6.3147,-6.315,-6.3201,-6.3196,-6.3253,-6.3249,-6.334,-6.3328,-6.3331,-6.3328,-6.3389,-6.3383,-6.359,-6.3616,-6.3434,-6.3436,-6.3438,0,-6.2944,-6.2995,-6.302,-6.305,-6.3065,-6.3113,-6.3141,-6.313,-6.316,-6.3195,-6.3234,-6.3283,-6.3321,-6.3405,-6.3412,-6.3456,-6.3444,-6.3514,-6.345,-6.3454,-6.3444,-6.3441,-6.3446,-6.3525,-6.3527,-6.3529,-6.353,0,-6.3099,-6.3096,-6.3138,-6.318,-6.3215,-6.3247,-6.3277,-6.3303,-6.3295,-6.3331,-6.3383,-6.3413,-6.3473,-6.3521,-6.3564,-6.3577,-6.3553,-6.3551,-6.3567,-6.3571,-6.3571,-6.3572,-6.3364,-6.3545,-6.3544,-6.3543,-6.3542,-6.3541,-6.3212,-6.3255,-6.3281,-6.3329,-6.3351,-6.338,-6.3421,-6.3429,-6.3473,-6.352,-6.3511,-6.357,-6.3597,-6.3652,-6.367,-6.3716,-6.3691,-6.3715,-6.3721,-6.3727,-6.3733,-6.3565,-6.3724,-6.3724,-6.3723,-6.3723,-6.3723,0,-6.3364,-6.338,-6.3424,-6.3467,-6.3506,-6.3481,-6.3513,-6.3547,-6.3599,-6.3626,-6.3665,-6.3726,-6.3774,-6.3787,-6.3833,-6.3868,-6.3858,-6.388,-6.3877,-6.3881,-6.3753,-6.3734,-6.3888,-6.3888,-6.3888,-6.3888,-6.3888,-6.3888,-6.3448,-6.3521,-6.3522,-6.3607,-6.3621,-6.3679,-6.37,-6.3727,-6.3749,-6.3818,-6.3858,-6.3866,-6.3888,-6.3937,-6.398,-6.3983,-6.4001,-6.4027,-6.4026,-6.3906,-6.3889,-6.3874,-6.3855,-6.4032,-6.4032,-6.4149,-6.415,-6.415]},{"header":{"parameterUnit":"m.s-1","parameterCategory":1,"la1":30.2991,"la2":30.254,"lo1":-89.0895,"lo2":-89.0444,"dy":0.0017,"dx":0.0017,"nx":28,"ny":28,"refTime":"2024-12-13T09:00:00:Z","depth":0,"parameterNumber":3,"parameterNumberName":"V-component_of_WINDS"},"data":[0,0,0,0,0,0,0,0,0,0,0,0,0,0,0,0,0,0,0,0,0,0,0,0,0,0,0,0,0,0,0,0,0,0,0,0,0,0,0,0,0,0,0,0,0,0,0,0,0,0,0,0,0,0,0,0,0,0,1.1592,1.1593,0,1.1682,1.1683,1.1684,1.1756,1.1757,1.1758,1.1758,1.1847,1.1849,1.185,0,0,0,0,0,0,0,0,0,0,0,0,0,1.1482,1.1483,1.1592,1.1593,1.1595,1.1682,1.1683,1.1684,1.1756,1.1757,1.1758,1.1759,1.1847,1.1849,1.1851,0,0,0,0,0,0,0,0,0,0,0,0,0,1.1546,1.1484,1.1592,1.1641,1.1646,1.1682,1.1683,1.1685,1.1756,1.1757,1.1758,1.1759,1.1846,1.1848,1.1851,1.1844,0,0,1.1859,1.186,0,0,0,0,0,0,0,0,1.1543,1.155,1.1633,1.1638,1.1644,1.1709,1.1677,1.1738,1.1756,1.1714,1.1758,1.176,1.18,1.1806,1.1821,1.1848,1.1852,1.1859,1.186,1.1861,1.1862,0,0,0,0,0,0,0,1.1538,1.1547,1.1628,1.1634,1.164,1.1658,1.1668,1.1689,1.175,1.1718,1.1723,1.1733,1.1803,1.1818,1.1823,1.1854,1.1859,1.1861,1.1863,1.1863,1.1884,1.1883,0,0,0,0,0,0,1.1526,1.1543,1.1625,1.1631,1.1595,1.1659,1.1671,1.1687,1.175,1.176,1.1732,1.1736,1.1813,1.182,1.1827,1.1826,1.1861,1.1864,1.1865,1.1884,1.1883,1.1882,0,0,0,0,0,0,1.1524,1.1533,1.1621,1.1588,1.1601,1.166,1.1677,1.1688,1.1703,1.1761,1.1772,1.1736,1.1815,1.1823,1.184,1.183,1.1865,1.1867,1.1886,1.1884,1.1883,1.1822,0,0,0,0,0,0,1.152,1.1532,1.153,1.1588,1.1602,1.1634,1.1677,1.1689,1.1708,1.1714,1.1767,1.1777,1.1816,1.1836,1.1843,1.1834,1.1869,1.1887,1.1885,1.1883,1.1825,1.1818,1.1813,0,0,0,0,0,1.1516,1.1508,1.1529,1.1539,1.1601,1.1633,1.1641,1.1687,1.1706,1.1706,1.1743,1.1776,1.183,1.1837,1.1845,1.1837,1.1888,1.1886,1.1883,1.1828,1.182,1.1813,0,0,0,0,0,0,1.1445,1.1516,1.1541,1.1551,1.1586,1.1645,1.1645,1.1676,1.1705,1.171,1.1764,1.1776,1.1787,1.1814,1.1821,1.1835,1.1863,1.1862,1.1818,1.1811,1.1805,1.1799,1.1871,0,0,0,0,0,1.1431,1.1451,1.1512,1.1515,1.1531,1.1585,1.16,1.1633,1.167,1.1685,1.1723,1.1758,1.1783,1.1798,1.1824,1.1829,1.1843,1.1827,1.1821,1.1816,1.1815,1.1822,1.1816,1.1875,1.1875,1.1875,0,0,1.1402,1.1443,1.1452,1.1502,1.1533,1.1552,1.1597,1.1615,1.163,1.1687,1.1707,1.1736,1.1778,1.179,1.1797,1.1812,1.1802,1.1813,1.1808,1.181,1.1819,1.1814,1.1809,1.1874,1.1874,1.1874,0,0,1.1359,1.1391,1.1399,1.1429,1.1476,1.1512,1.1514,1.1569,1.1591,1.1612,1.1656,1.1674,1.1716,1.1745,1.1765,1.1736,1.1768,1.1742,1.1711,1.1717,1.1712,1.1709,1.17,1.1696,1.1741,1.1741,1.1741,0,1.1316,1.1349,1.1398,1.1416,1.1437,1.1491,1.15,1.1526,1.1578,1.1592,1.1608,1.1664,1.1695,1.1716,1.1709,1.1723,1.1727,1.1737,1.1709,1.1706,1.1703,1.1696,1.1692,1.1738,1.1738,1.1738,1.1739,0,1.1295,1.1317,1.1317,1.1369,1.139,1.1402,1.1454,1.147,1.1501,1.1535,1.1556,1.1597,1.1634,1.164,1.167,1.1666,1.1674,1.1699,1.1728,1.1693,1.1688,1.1685,1.1733,1.1734,1.1735,1.1736,0,0,1.121,1.129,1.129,1.1315,1.1371,1.1389,1.1404,1.1441,1.1454,1.1488,1.1504,1.1538,1.1563,1.1586,1.1619,1.1624,1.1601,1.1649,1.1651,1.164,1.1602,1.1584,1.158,1.1622,1.1622,1.1622,1.1599,0,1.1177,1.121,1.1256,1.1273,1.1295,1.1347,1.1361,1.1397,1.1429,1.1452,1.1488,1.1513,1.1542,1.1557,1.1564,1.1602,1.1594,1.1604,1.1638,1.1638,1.1627,1.1576,1.1557,1.1534,1.1597,1.1596,1.1596,0,1.1144,1.1178,1.1197,1.1254,1.1265,1.1276,1.1316,1.1337,1.1379,1.1403,1.1429,1.1466,1.1485,1.1511,1.1539,1.1545,1.1561,1.1582,1.1582,1.1588,1.1616,1.1583,1.1527,1.1524,1.1592,1.1593,1.1593,0,1.1083,1.1133,1.1152,1.1171,1.1237,1.1244,1.1272,1.1315,1.1336,1.1369,1.1384,1.1418,1.1437,1.1464,1.1509,1.1523,1.1533,1.1562,1.1554,1.1553,1.1555,1.1554,1.1503,1.1562,1.1562,1.1562,1.1562,0,1.1043,1.1053,1.1126,1.1137,1.1151,1.1204,1.1215,1.1248,1.1286,1.1306,1.1352,1.1369,1.1427,1.1451,1.1486,1.1505,1.1513,1.1533,1.1543,1.153,1.1528,1.1542,1.1546,1.1561,1.1561,1.1562,1.1562,0,1.0977,1.1026,1.105,1.1112,1.1127,1.1135,1.1187,1.1201,1.1237,1.1261,1.1269,1.1325,1.1356,1.1404,1.1448,1.1472,1.1486,1.15,1.1472,1.1478,1.1468,1.1469,1.1426,1.1424,1.1482,1.1481,1.1481,0,1.095,1.0959,1.1022,1.1039,1.1066,1.1092,1.1114,1.1166,1.1187,1.1237,1.1245,1.1279,1.131,1.1356,1.1401,1.1435,1.1452,1.1435,1.1458,1.1445,1.1454,1.1454,1.1456,1.143,1.1429,1.1428,1.1427,0,1.0896,1.092,1.095,1.0989,1.1014,1.1047,1.1081,1.1092,1.1153,1.1173,1.1206,1.123,1.1277,1.1311,1.1352,1.138,1.1414,1.142,1.142,1.1408,1.1392,1.1403,1.1459,1.1421,1.1421,1.1422,1.1422,1.1422,1.085,1.0862,1.0909,1.0942,1.0974,1.1006,1.1023,1.1062,1.109,1.1133,1.1162,1.1194,1.1237,1.1296,1.1323,1.1348,1.1363,1.1363,1.1363,1.1363,1.1359,1.1387,1.1356,1.1356,1.1356,1.1356,1.1357,0,1.0801,1.0834,1.0864,1.0912,1.0938,1.0969,1.1009,1.1029,1.1056,1.1095,1.1125,1.1163,1.1197,1.1245,1.1282,1.1294,1.131,1.1302,1.1302,1.1309,1.1343,1.134,1.1288,1.1288,1.1288,1.1288,1.1288,1.1288,1.0779,1.0801,1.0831,1.0871,1.0904,1.0937,1.0958,1.0988,1.1019,1.1061,1.109,1.1121,1.1164,1.1205,1.1238,1.1251,1.1263,1.125,1.1268,1.13,1.1306,1.1312,1.131,1.1252,1.1252,1.1233,1.1232,1.1232]}]]